Location: Highridge
(54.0333°N, 114.1333°W)
Time: 12:19:36
(UTC+00:00)

Oscar 19 - Pass Details

Date: 29 November 2023
Orbit: 771 x 789 km, 98.9° (Epoch: 01 March)

Event Time Altitude Azimuth Distance (km) Brightness Sun altitude
Rises 11:54:32 0° 20° (NNE) 3,268 14.2 -30.4°
Reaches altitude 10° 11:56:59 10° 27° (NNE) 2,338 13.4 -30.0°
Maximum altitude 12:01:52 41° 98° (E) 1,114 11.8 -29.3°
Drops below altitude 10° 12:06:44 10° 169° (S) 2,333 13.2 -28.6°
Sets 12:09:10 0° 176° (S) 3,259 13.9 -28.3°
